Torna al catalogo

FENGYUN 1C DEB

AttivoPO
NORAD 41009·DEBRIS·🇨🇳 China

Lanciato May 10, 1999 da Taiyuan Satellite Launch Center

Loading…

Prossimi Passaggi (prossime 24 ore)

TLE

AggiornatoSource: Space-Track

Epoca: Sep 13, 2026, 05:35 UTC

1 41009U 99025EXP 26256.23319517  .00005155  00000-0  12009-2 0  9991
2 41009  99.2071 262.9134 0012293 348.6517  11.4398 14.55269143629746

Traccia FENGYUN 1C DEB in tempo reale con AllMySat

Download on the App Store